TimeCDT,TemperatureF,Dew PointF,Humidity,Sea Level PressureIn,VisibilityMPH,Wind Direction,Wind SpeedMPH,Gust SpeedMPH,PrecipitationIn,Events,Conditions,WindDirDegrees,DateUTC
12:15 AM,69.1,67.6,95,29.90,10.0,Calm,Calm,-,N/A,,Clear,0,2013-06-04 05:15:00
12:35 AM,69.3,68.0,96,29.90,7.0,Calm,Calm,-,N/A,,Clear,0,2013-06-04 05:35:00
12:55 AM,68.7,67.1,95,29.89,7.0,Calm,Calm,-,N/A,,Clear,0,2013-06-04 05:55:00
1:15 AM,68.5,67.3,96,29.90,7.0,Calm,Calm,-,N/A,,Clear,0,2013-06-04 06:15:00
1:35 AM,68.5,67.3,96,29.90,5.0,Calm,Calm,-,N/A,,Clear,0,2013-06-04 06:35:00
1:55 AM,69.1,67.5,95,29.90,10.0,Calm,Calm,-,N/A,,Clear,0,2013-06-04 06:55:00
2:15 AM,69.4,67.5,93,29.89,10.0,Calm,Calm,-,N/A,,Clear,0,2013-06-04 07:15:00
2:35 AM,69.8,67.3,92,29.90,10.0,Calm,Calm,-,N/A,,Clear,0,2013-06-04 07:35:00
2:55 AM,69.1,67.1,93,29.90,10.0,Calm,Calm,-,N/A,,Clear,0,2013-06-04 07:55:00
3:15 AM,68.5,67.1,95,29.90,10.0,Calm,Calm,-,N/A,,Scattered Clouds,0,2013-06-04 08:15:00
3:35 AM,69.3,67.1,93,29.91,10.0,Calm,Calm,-,N/A,,Scattered Clouds,0,2013-06-04 08:35:00
3:55 AM,70.7,67.5,89,29.91,10.0,Calm,Calm,-,N/A,,Mostly Cloudy,0,2013-06-04 08:55:00
4:15 AM,70.7,67.3,89,29.91,10.0,Calm,Calm,-,N/A,,Mostly Cloudy,0,2013-06-04 09:15:00
4:35 AM,70.2,67.1,90,29.91,10.0,Calm,Calm,-,N/A,,Mostly Cloudy,0,2013-06-04 09:35:00
4:55 AM,69.6,66.6,90,29.90,10.0,Calm,Calm,-,N/A,,Scattered Clouds,0,2013-06-04 09:55:00
5:15 AM,69.3,66.4,91,29.90,10.0,Calm,Calm,-,N/A,,Clear,0,2013-06-04 10:15:00
5:35 AM,68.9,66.4,92,29.90,10.0,Calm,Calm,-,N/A,,Clear,0,2013-06-04 10:35:00
5:55 AM,67.6,66.2,95,29.90,7.0,Calm,Calm,-,N/A,,Clear,0,2013-06-04 10:55:00
6:15 AM,67.5,65.8,95,29.90,10.0,Calm,Calm,-,N/A,,Clear,0,2013-06-04 11:15:00
6:35 AM,67.3,65.8,95,29.90,10.0,Calm,Calm,-,N/A,,Clear,0,2013-06-04 11:35:00
6:55 AM,69.3,66.7,92,29.90,10.0,Calm,Calm,-,N/A,,Clear,0,2013-06-04 11:55:00
7:15 AM,70.5,67.1,89,29.90,10.0,Calm,Calm,-,N/A,,Clear,0,2013-06-04 12:15:00
7:35 AM,71.6,67.3,86,29.90,10.0,Calm,Calm,-,N/A,,Clear,0,2013-06-04 12:35:00
7:55 AM,73.6,68.4,84,29.91,10.0,ENE,4.6,-,N/A,,Clear,70,2013-06-04 12:55:00
8:15 AM,75.4,68.7,80,29.92,10.0,East,3.5,-,N/A,,Clear,90,2013-06-04 13:15:00
8:35 AM,76.1,69.1,79,29.92,10.0,East,5.8,-,N/A,,Clear,100,2013-06-04 13:35:00
8:55 AM,77.9,70.7,78,29.93,10.0,Calm,Calm,-,N/A,,Clear,0,2013-06-04 13:55:00
9:15 AM,78.6,70.7,77,29.93,10.0,East,3.5,-,N/A,,Clear,80,2013-06-04 14:15:00
9:35 AM,79.7,71.4,76,29.94,10.0,ENE,3.5,-,N/A,,Clear,70,2013-06-04 14:35:00
9:55 AM,80.4,71.8,75,29.94,10.0,Calm,Calm,-,N/A,,Clear,0,2013-06-04 14:55:00
10:15 AM,82.2,72.5,72,29.94,10.0,Calm,Calm,-,N/A,,Clear,0,2013-06-04 15:15:00
10:35 AM,84.0,73.2,70,29.94,10.0,Calm,Calm,-,N/A,,Clear,0,2013-06-04 15:35:00
10:55 AM,84.6,72.3,67,29.94,10.0,Calm,Calm,-,N/A,,Clear,0,2013-06-04 15:55:00
11:15 AM,85.1,72.5,66,29.94,10.0,Calm,Calm,-,N/A,,Scattered Clouds,0,2013-06-04 16:15:00
11:35 AM,86.7,70.9,59,29.94,10.0,Calm,Calm,-,N/A,,Scattered Clouds,0,2013-06-04 16:35:00
11:55 AM,86.9,70.0,57,29.93,10.0,Calm,Calm,-,N/A,,Scattered Clouds,0,2013-06-04 16:55:00
12:15 PM,87.4,70.9,58,29.93,10.0,Calm,Calm,-,N/A,,Scattered Clouds,0,2013-06-04 17:15:00
12:35 PM,86.2,69.6,58,29.93,10.0,Calm,Calm,-,N/A,,Mostly Cloudy,0,2013-06-04 17:35:00
12:55 PM,87.8,69.6,55,29.93,10.0,Calm,Calm,-,N/A,,Scattered Clouds,0,2013-06-04 17:55:00
1:15 PM,89.6,70.0,52,29.92,10.0,ESE,3.5,-,N/A,,Scattered Clouds,120,2013-06-04 18:15:00
1:35 PM,86.9,69.4,56,29.92,10.0,NW,4.6,-,N/A,,Mostly Cloudy,320,2013-06-04 18:35:00
1:55 PM,89.1,68.0,50,29.91,10.0,Calm,Calm,-,N/A,,Scattered Clouds,0,2013-06-04 18:55:00
2:15 PM,89.8,68.5,49,29.90,10.0,ENE,3.5,-,N/A,,Mostly Cloudy,60,2013-06-04 19:15:00
2:35 PM,88.5,68.5,51,29.89,10.0,Calm,Calm,-,N/A,,Mostly Cloudy,0,2013-06-04 19:35:00
2:55 PM,89.2,67.3,48,29.88,10.0,Calm,Calm,-,N/A,,Clear,0,2013-06-04 19:55:00
3:15 PM,90.3,68.7,49,29.88,10.0,Calm,Calm,-,N/A,,Scattered Clouds,0,2013-06-04 20:15:00
3:35 PM,90.0,69.3,50,29.87,10.0,ESE,4.6,-,N/A,,Mostly Cloudy,120,2013-06-04 20:35:00
3:55 PM,90.7,69.4,50,29.86,10.0,Calm,Calm,-,N/A,,Scattered Clouds,0,2013-06-04 20:55:00
4:15 PM,90.9,69.3,49,29.86,10.0,ENE,3.5,-,N/A,,Clear,70,2013-06-04 21:15:00
4:35 PM,90.3,69.1,49,29.85,10.0,Calm,Calm,-,N/A,,Clear,0,2013-06-04 21:35:00
4:55 PM,90.3,70.0,51,29.85,10.0,ENE,3.5,-,N/A,,Clear,60,2013-06-04 21:55:00
5:15 PM,90.1,68.5,49,29.84,10.0,Calm,Calm,-,N/A,,Clear,0,2013-06-04 22:15:00
5:35 PM,90.1,68.2,48,29.84,10.0,Calm,Calm,-,N/A,,Clear,0,2013-06-04 22:35:00
5:55 PM,90.1,69.3,50,29.84,10.0,Calm,Calm,-,N/A,,Clear,0,2013-06-04 22:55:00
6:15 PM,89.6,70.2,53,29.83,10.0,SSE,3.5,-,N/A,,Clear,150,2013-06-04 23:15:00
6:35 PM,88.7,71.2,56,29.83,10.0,Calm,Calm,-,N/A,,Clear,0,2013-06-04 23:35:00
6:55 PM,88.0,72.3,60,29.84,10.0,Calm,Calm,-,N/A,,Clear,0,2013-06-04 23:55:00
7:15 PM,86.7,74.8,68,29.84,10.0,Calm,Calm,-,N/A,,Clear,0,2013-06-05 00:15:00
7:35 PM,83.8,73.0,70,29.85,10.0,Calm,Calm,-,N/A,,Clear,0,2013-06-05 00:35:00
7:55 PM,81.5,74.7,80,29.85,10.0,Calm,Calm,-,N/A,,Clear,0,2013-06-05 00:55:00
8:15 PM,78.4,74.8,89,29.86,10.0,Calm,Calm,-,N/A,,Clear,0,2013-06-05 01:15:00
8:35 PM,77.2,74.5,91,29.86,10.0,Calm,Calm,-,N/A,,Clear,0,2013-06-05 01:35:00
8:55 PM,77.5,75.4,93,29.87,10.0,Calm,Calm,-,N/A,,Mostly Cloudy,0,2013-06-05 01:55:00
9:15 PM,77.2,75.0,93,29.87,10.0,Calm,Calm,-,N/A,,Scattered Clouds,0,2013-06-05 02:15:00
9:35 PM,77.0,73.9,90,29.88,10.0,Calm,Calm,-,N/A,,Scattered Clouds,0,2013-06-05 02:35:00
9:55 PM,77.0,74.8,93,29.88,10.0,Calm,Calm,-,N/A,,Mostly Cloudy,0,2013-06-05 02:55:00
10:15 PM,76.3,74.3,94,29.89,10.0,Calm,Calm,-,N/A,,Mostly Cloudy,0,2013-06-05 03:15:00
10:35 PM,76.6,74.7,94,29.90,7.0,South,3.5,-,N/A,,Mostly Cloudy,170,2013-06-05 03:35:00
10:55 PM,76.8,72.9,88,29.90,10.0,Calm,Calm,-,N/A,,Scattered Clouds,0,2013-06-05 03:55:00
11:15 PM,75.6,73.4,93,29.90,10.0,Calm,Calm,-,N/A,,Scattered Clouds,0,2013-06-05 04:15:00
11:35 PM,74.8,72.5,92,29.90,10.0,Calm,Calm,-,N/A,,Scattered Clouds,0,2013-06-05 04:35:00
11:55 PM,74.3,72.1,93,29.90,10.0,Calm,Calm,-,N/A,,Clear,0,2013-06-05 04:55:00